Location: Helion Bumpstead
(52.0500°N, 0.4000°E)
Time: 21:27:25
(UTC+00:00)

NOSS 3-2 (A) - Pass Details

Date: 15 November 2025
Orbit: 666 x 1537 km, 63.4° (Epoch: 06 November)

Event Time Altitude Azimuth Distance (km) Brightness Sun altitude
Exits shadow 05:06:31 21° 320° (NW) 2,247 5.0 -20.1°
Maximum altitude 05:11:32 65° 38° (NE) 1,313 4.2 -19.3°
Drops below altitude 10° 05:19:56 10° 120° (ESE) 3,464 7.4 -18.0°
Sets 05:23:07 0° 123° (ESE) 4,530 8.2 -17.5°
